EA5ILC Weather Reports


Display with metric or nautical units.
time (UTC)temp
F
wind
direction
speed
MPH
gust
MPH
rain 1hr
in
rain 24hr
in
rain mn
in
humidity
%
barometer
mb
20260506142543 67 356 3.0 9.0 0.00 0.00 0.00 69 1013.2
20260506141540 67 43 3.0 8.0 0.00 0.00 0.00 68 1013.3
20260506140538 68 331 4.0 9.0 0.00 0.00 0.00 67 1013.3
20260506135535 71 330 3.0 9.0 0.00 0.00 0.00 64 1013.2
20260506134532 71 329 4.0 11.0 0.00 0.00 0.00 64 1013.2
20260506133530 71 336 4.0 11.0 0.00 0.00 0.00 64 1013.3
20260506132527 71 7 4.0 8.0 0.00 0.00 0.00 64 1013.4
20260506131524 71 271 4.0 11.0 0.00 0.00 0.00 63 1013.4
20260506130522 70 322 4.0 11.0 0.00 0.00 0.00 63 1013.5
20260506125519 70 259 5.0 13.0 0.00 0.00 0.00 63 1013.6
20260506124517 70 352 5.0 11.0 0.00 0.00 0.00 61 1013.6
20260506123614 71 318 4.0 8.0 0.00 0.00 0.00 62 1013.6
20260506122632 70 354 4.0 11.0 0.00 0.00 0.00 63 1013.6
20260506121609 70 24 5.0 17.0 0.00 0.00 0.00 64 1013.5
20260506120607 70 186 3.0 11.0 0.00 0.00 0.00 64 1013.8
20260506115604 69 20 4.0 9.0 0.00 0.00 0.00 65 1013.8
20260506114601 70 320 3.0 7.0 0.00 0.00 0.00 66 1013.9
20260506113559 69 335 4.0 8.0 0.00 0.00 0.00 67 1013.8
20260506112556 69 340 6.0 13.0 0.00 0.00 0.00 66 1013.9
20260506111553 70 294 4.0 9.0 0.00 0.00 0.00 67 1014.0
20260506110631 69 275 4.0 11.0 0.00 0.00 0.00 66 1014.0
20260506105548 68 275 4.0 11.0 0.00 0.00 0.00 67 1014.2
20260506104605 69 289 4.0 7.0 0.00 0.00 0.00 65 1014.1
20260506103543 70 336 3.0 7.0 0.00 0.00 0.00 64 1014.2
20260506102600 69 294 3.0 8.0 0.00 0.00 0.00 65 1014.1
20260506101558 69 296 3.0 7.0 0.00 0.00 0.00 65 1014.2
20260506100535 70 195 3.0 8.0 0.00 0.00 0.00 63 1014.1
20260506095532 71 294 2.0 4.0 0.00 0.00 0.00 61 1014.1
20260506094550 71 248 3.0 7.0 0.00 0.00 0.00 61 1014.1
20260506093527 69 271 2.0 4.0 0.00 0.00 0.00 63 1014.0
20260506092524 69 235 2.0 6.0 0.00 0.00 0.00 63 1014.1
20260506091522 68 238 2.0 7.0 0.00 0.00 0.00 65 1013.8
20260506090519 68 189 3.0 6.0 0.00 0.00 0.00 66 1013.8
20260506085516 68 293 3.0 9.0 0.00 0.00 0.00 66 1013.7
20260506084614 67 239 1.0 4.0 0.00 0.00 0.00 69 1013.9
20260506083611 67 149 1.0 4.0 0.00 0.00 0.00 70 1013.8
20260506082609 67 248 1.0 4.0 0.00 0.00 0.00 68 1013.8
20260506081606 66 349 1.0 2.0 0.00 0.00 0.00 71 1013.7
20260506080604 65 180 0.0 2.0 0.00 0.00 0.00 72 1013.7
20260506072553 64 286 0.0 4.0 0.00 0.00 0.00 73 1013.8
20260506071550 64 0.0 0.0 0.00 0.00 0.00 74 1013.8
20260506070548 63 270 0.0 2.0 0.00 0.00 0.00 74 1013.8
20260506061535 59 0.0 0.0 0.00 0.00 0.00 88 1013.8
20260506060532 58 0.0 0.0 0.00 0.00 0.00 88 1013.8
20260506050517 56 0.0 2.0 0.00 0.00 0.00 84 1013.3
20260506044611 56 23 0.0 2.0 0.00 0.00 0.00 93 1013.1
20260506043609 57 23 0.0 2.0 0.00 0.00 0.00 92 1013.2
20260506042606 59 0.0 0.0 0.00 0.00 0.00 92 1013.1
20260506041624 59 0.0 2.0 0.00 0.00 0.00 92 1013.2
20260506040621 59 23 0.0 2.0 0.00 0.00 0.00 92 1013.1
20260506035558 59 23 0.0 2.0 0.00 0.00 0.00 91 1013.3
20260506034556 59 31 1.0 2.0 0.00 0.00 0.00 90 1013.1
20260506033553 58 0.0 0.0 0.00 0.00 0.00 87 1013.2
20260506032550 58 0.0 0.0 0.00 0.00 0.00 83 1013.1
20260506031548 58 0.0 2.0 0.00 0.00 0.00 82 1013.0
20260506030545 56 0.0 0.0 0.00 0.00 0.00 79 1013.1
20260506025542 56 0.0 0.0 0.00 0.00 0.00 79 1012.8
20260506024600 57 23 0.0 2.0 0.00 0.00 0.00 79 1012.8
20260506023537 58 0.0 0.0 0.00 0.00 0.00 77 1012.9
20260506022555 59 0.0 0.0 0.00 0.00 0.00 76 1012.7
20260506021532 59 326 0.0 2.0 0.00 0.00 0.00 75 1012.9
20260506020530 60 118 1.0 2.0 0.00 0.00 0.00 75 1012.7
20260506015527 60 82 2.0 6.0 0.00 0.00 0.00 73 1012.8
20260506014525 61 109 2.0 4.0 0.00 0.00 0.00 69 1012.7
20260506013521 61 129 2.0 4.0 0.00 0.00 0.00 63 1012.8
20260506012519 62 148 1.0 4.0 0.00 0.00 0.00 56 1012.7
20260506011516 62 23 0.0 2.0 0.00 0.00 0.00 53 1012.7
20260506010614 62 17 2.0 4.0 0.00 0.00 0.00 54 1012.6
20260506005611 62 353 2.0 4.0 0.00 0.00 0.00 55 1012.6
20260506004609 61 17 1.0 4.0 0.00 0.00 0.00 55 1012.7
20260506003606 61 17 1.0 4.0 0.00 0.00 0.00 55 1012.9
20260506002703 60 23 0.0 2.0 0.00 0.00 0.00 59 1013.0
20260506001621 60 0.0 0.0 0.00 0.00 0.00 60 1013.1
20260506000558 61 23 1.0 4.0 0.00 0.00 0.00 58 1013.2
20260505235556 60 23 0.0 2.0 0.00 0.00 0.00 60 1013.3
20260505234553 60 13 0.0 2.0 0.00 0.00 0.00 60 1013.4
20260505233551 59 0.0 0.0 0.00 0.00 0.00 62 1013.5
20260505232548 59 0.0 0.0 0.00 0.00 0.00 63 1013.4
20260505231625 59 0.0 0.0 0.00 0.00 0.00 65 1013.3
20260505230543 60 0.0 0.0 0.00 0.00 0.00 65 1013.5
20260505225540 60 0.0 0.0 0.00 0.00 0.00 65 1013.6
20260505224638 60 0.0 0.0 0.00 0.00 0.00 66 1013.7
20260505223535 61 188 0.0 2.0 0.00 0.00 0.00 63 1013.7
20260505222532 60 0.0 2.0 0.00 0.00 0.00 63 1013.7
20260505221530 60 23 1.0 2.0 0.00 0.00 0.00 65 1013.7
20260505220607 59 0.0 0.0 0.00 0.00 0.00 70 1013.8
20260505215524 60 0.0 0.0 0.00 0.00 0.00 69 1013.9
20260505214602 60 0.0 0.0 0.00 0.00 0.00 70 1014.1
20260505213539 60 0.0 0.0 0.00 0.00 0.00 72 1014.1
20260505212517 60 0.0 0.0 0.00 0.00 0.00 73 1014.1
20260505211614 60 0.0 0.0 0.00 0.00 0.00 73 1014.1
20260505210612 60 0.0 0.0 0.00 0.00 0.00 73 1014.2
20260505205609 60 0.0 0.0 0.00 0.00 0.00 75 1014.0
20260505204606 60 0.0 0.0 0.00 0.00 0.00 75 1014.1
20260505203604 61 0.0 0.0 0.00 0.00 0.00 75 1014.0
20260505202601 61 0.0 0.0 0.00 0.00 0.00 76 1014.1
20260505201559 62 0.0 0.0 0.00 0.00 0.00 74 1014.2
20260505200556 62 0.0 0.0 0.00 0.00 0.00 72 1013.9
20260505195614 63 0.0 0.0 0.00 0.00 0.00 69 1013.9
20260505194551 63 0.0 0.0 0.00 0.00 0.00 68 1013.7
20260505193548 63 0.0 0.0 0.00 0.00 0.00 70 1013.7
20260505192606 64 0.0 0.0 0.00 0.00 0.00 68 1013.7
20260505191543 63 0.0 0.0 0.00 0.00 0.00 69 1013.5
20260505190540 64 0.0 0.0 0.00 0.00 0.00 71 1013.3
20260505185558 64 125 1.0 2.0 0.00 0.00 0.00 71 1013.3
20260505184555 65 124 0.0 2.0 0.00 0.00 0.00 68 1013.4
20260505183533 66 135 0.0 2.0 0.00 0.00 0.00 68 1013.3
20260505182550 67 23 0.0 2.0 0.00 0.00 0.00 66 1013.2
20260505181527 67 170 1.0 4.0 0.00 0.00 0.00 66 1013.2
20260505180525 67 260 3.0 4.0 0.00 0.00 0.00 64 1013.2
20260505175522 69 210 2.0 4.0 0.00 0.00 0.00 61 1013.2
20260505174519 71 183 2.0 4.0 0.00 0.00 0.00 57 1013.1
20260505173537 71 189 2.0 4.0 0.00 0.00 0.00 57 1012.9
20260505172634 70 191 2.0 4.0 0.00 0.00 0.00 58 1013.0
20260505171612 73 214 1.0 4.0 0.00 0.00 0.00 53 1012.9
20260505170609 72 168 1.0 4.0 0.00 0.00 0.00 52 1012.8
20260505165607 71 138 1.0 4.0 0.00 0.00 0.00 53 1012.9
20260505164604 71 202 2.0 6.0 0.00 0.00 0.00 54 1013.0
20260505163621 71 187 2.0 4.0 0.00 0.00 0.00 55 1013.0
20260505162559 72 164 2.0 4.0 0.00 0.00 0.00 53 1013.0
20260505161556 74 183 2.0 6.0 0.00 0.00 0.00 48 1012.9
20260505160553 75 225 3.0 8.0 0.00 0.00 0.00 46 1012.9
20260505152603 75 247 2.0 6.0 0.00 0.00 0.00 52 1013.0
20260505151601 75 195 2.0 6.0 0.00 0.00 0.00 52 1012.9
20260505150538 76 223 1.0 7.0 0.00 0.00 0.00 52 1013.1